Regional Weather Roundup
Issued by NWS

Home | Current Version | Previous Version | Graphics & Text | Print | Product List | Glossary On
Versions: 1 2 3 4 5 6 7 8 9 10 11 12 13 14 15 16 17 18 19 20 21 22 23 24 25 26 27 28 29 30 31 32 33 34 35 36 37 38 39 40 41 42 43 44 45 46 47 48 49 50
331
ASUS45 KCYS 221710
RWRWY

WYOMING REGIONAL WEATHER ROUNDUP
NATIONAL WEATHER SERVICE CHEYENNE WY
1100 AM MDT FRI JUL 22 2016

NOTE:  "FAIR" INDICATES FEW OR NO CLOUDS BELOW 12,000 FEET
WITH NO SIGNIFICANT WEATHER AND/OR OBSTRUCTIONS TO VISIBILITY.

WYZ001-221800-
YELLOWSTONE NATIONAL PARK

CITY           SKY/WX    TMP DP  RH WIND       PRES   REMARKS
LK YELLOWSTONE   N/A     70  49  47 VRB3      30.40F
W YELLOWSTONE  NOT AVBL

$$
WYZ002>013-054>058-071-098>099-221800-
NORTHERN WYOMING

CITY           SKY/WX    TMP DP  RH WIND       PRES   REMARKS
JACKSON        SUNNY     75  43  31 S6        30.29F
CODY           FAIR      84  41  21 S12       30.14S
GREYBULL       FAIR      91  45  20 E12       30.05F HAZE
WORLAND        FAIR      88  46  23 N7        30.08F
SHERIDAN       FAIR      88  44  21 VRB5      30.04F
BUFFALO        FAIR      97  41  14 S15       30.10F HX  92
GILLETTE       FAIR      95  40  14 S22       30.08S HX  91
HULETT         FAIR      91  46  21 SW8       30.10S
NEWCASTLE      FAIR      90  50  25 SE12      30.13S

$$
WYZ014>020-022>026-101>103-221800-
CENTRAL WYOMING

CITY           SKY/WX    TMP DP  RH WIND       PRES   REMARKS
BIG PINEY      FAIR      77  45  32 E5        30.37F
PINEDALE       FAIR      73  41  31 CALM      30.39S
DUBOIS         FAIR      73  37  27 CALM      30.34F
LANDER         FAIR      82  42  24 CALM      30.21F
RIVERTON       FAIR      81  45  28 S9        30.22F
CASPER         FAIR      83  48  29 S13       30.22F
DOUGLAS          N/A    N/A N/A N/A MISG      30.21S

$$
WYZ021-027>030-104>119-221800-
SOUTHERN WYOMING

CITY           SKY/WX    TMP DP  RH WIND       PRES   REMARKS
EVANSTON       FAIR      83  41  22 W18       30.36F
KEMMERER         N/A     79  39  24 SW6       30.40S
FORT BRIDGER   FAIR      77  42  28 NE5       30.40S
ROCK SPRINGS   FAIR      80  41  24 N3        30.35F
DIXON          FAIR      80  46  30 S8        30.40S
RAWLINS        FAIR      81  43  26 SW12G17   30.36F
SARATOGA       FAIR      77  45  31 NW8       30.39S
LARAMIE        FAIR      79  45  29 SW10      30.39S
CHEYENNE       FAIR      84  44  24 CALM      30.30R
TORRINGTON     FAIR      88  50  27 SE5       30.14S
PINE BLUFFS    FAIR      86  46  25 N6        30.24R

$$




USA.gov is the U.S. government's official web portal to all federal, state and local government web resources and services.